[TLELIST] Archives

 

[list_settings.list_name] Current TLEs

December 18th 2021 PST

HST 1 20580U 90037B 21352.16263697 .00001051 00000-0 52316-4 0 9995 2 20580 28.4706 289.3424 0002489 238.9419 250.0940 15.09882063539059 ISS (ZARYA) 1 25544U 98067A 21352.44085047 .00009561 00000-0 18147-3 0 9990 2 25544 51.6429 151.6415 0004471 329.5453 73.8684 15.49000326317152 CXO 1 25867U 99040B 21353.22129070 .00000421 00000-0 00000+0 0 9993 2 25867 50.4042 246.6947 8599221 228.5550 359.7610 0.37803019 22271 ____________________________________________________________________ These 2-Line ...Continue Reading

[list_settings.list_name] Current TLEs

December 17th 2021 PST

HST 1 20580U 90037B 21351.15110213 .00000852 00000-0 40304-4 0 9990 2 20580 28.4707 296.0376 0002524 227.4040 152.4606 15.09879609538891 ISS (ZARYA) 1 25544U 98067A 21351.34932500 .00001654 00000-0 38218-4 0 9990 2 25544 51.6426 157.0365 0004281 323.4907 109.1604 15.48978274316989 CXO 1 25867U 99040B 21353.22129070 .00000421 00000-0 00000+0 0 9993 2 25867 50.4042 246.6947 8599221 228.5550 359.7610 0.37803019 22271 ____________________________________________________________________ These 2-Line ...Continue Reading

[list_settings.list_name] Current TLEs

December 16th 2021 PST

HST 1 20580U 90037B 21349.59113824 .00000758 00000-0 34699-4 0 9991 2 20580 28.4709 306.3627 0002569 209.9015 313.8696 15.09877323538391 ISS (ZARYA) 1 25544U 98067A 21350.31510551 .00001336 00000-0 32442-4 0 9994 2 25544 51.6423 162.1530 0004241 318.6083 103.0986 15.48972323316822 CXO 1 25867U 99040B 21353.22097761 .00000421 00000-0 00000+0 0 9994 2 25867 50.4045 246.6948 8599188 228.5547 359.7190 0.37804027 22276 ____________________________________________________________________ These 2-Line ...Continue Reading

[list_settings.list_name] Current TLEs

December 15th 2021 PST

HST 1 20580U 90037B 21348.90549752 .00000654 00000-0 28395-4 0 9999 2 20580 28.4710 310.9008 0002598 202.2028 187.3393 15.09876017538295 ISS (ZARYA) 1 25544U 98067A 21349.34784039 .00001389 00000-0 33412-4 0 9995 2 25544 51.6422 166.9375 0004173 314.2075 110.1874 15.48969273316675 CXO 1 25867U 99040B 21347.93111846 .00000306 00000-0 00000-0 0 9999 2 25867 50.5447 246.9740 8589916 228.4281 359.6965 0.37803426 11109 ____________________________________________________________________ These 2-Line ...Continue Reading

[list_settings.list_name] Current TLEs

December 14th 2021 PST

HST 1 20580U 90037B 21347.40455692 .00000627 00000-0 26755-4 0 9990 2 20580 28.4711 320.8351 0002659 185.7065 309.2197 15.09874545538067 ISS (ZARYA) 1 25544U 98067A 21348.27067493 .00000944 00000-0 25341-4 0 9992 2 25544 51.6421 172.2664 0004169 309.7715 224.0760 15.48963689316506 CXO 1 25867U 99040B 21347.93111846 .00000306 00000-0 00000-0 0 9999 2 25867 50.5447 246.9740 8589916 228.4281 359.6965 0.37803426 11109 ____________________________________________________________________ These 2-Line ...Continue Reading

[list_settings.list_name] Current TLEs

December 13th 2021 PST

HST 1 20580U 90037B 21347.25127806 .00000632 00000-0 27092-4 0 9997 2 20580 28.4712 321.8496 0002668 184.0201 196.0997 15.09874452538307 ISS (ZARYA) 1 25544U 98067A 21347.34681480 .00000604 00000-0 19153-4 0 9994 2 25544 51.6420 176.8363 0004152 305.4744 113.2790 15.48959522316365 CXO 1 25867U 99040B 21347.93111846 .00000306 00000-0 00000+0 0 9998 2 25867 50.5447 246.9740 8589916 228.4281 359.6965 0.37803426 22257 ____________________________________________________________________ These 2-Line ...Continue Reading

[list_settings.list_name] Current TLEs

December 12th 2021 PST

HST 1 20580U 90037B 21345.69113313 .00000655 00000-0 28474-4 0 9991 2 20580 28.4713 332.1758 0002737 167.5157 355.5514 15.09873146537807 ISS (ZARYA) 1 25544U 98067A 21346.44497459 .00000757 00000-0 21943-4 0 9994 2 25544 51.6419 181.2981 0004154 302.4533 124.0937 15.48958032316227 CXO 1 25867U 99040B 21345.28700052 .00000398 00000-0 00000-0 0 9999 2 25867 50.5917 247.0816 8583449 228.3984 359.7548 0.37804456 11091 ____________________________________________________________________ These 2-Line ...Continue Reading

[list_settings.list_name] Current TLEs

December 11th 2021 PST

HST 1 20580U 90037B 21344.69959980 .00000683 00000-0 30167-4 0 9991 2 20580 28.4713 338.7385 0002775 157.1285 5.7315 15.09872265537651 ISS (ZARYA) 1 25544U 98067A 21344.71242282 .00001445 00000-0 34444-4 0 9999 2 25544 51.6418 189.8678 0004128 294.3300 184.7182 15.48956096315957 CXO 1 25867U 99040B 21345.28700052 .00000398 00000-0 00000-0 0 9999 2 25867 50.5917 247.0816 8583449 228.3984 359.7548 0.37804456 11091 ____________________________________________________________________ These 2-Line ...Continue Reading

[list_settings.list_name] Current TLEs

December 10th 2021 PST

HST 1 20580U 90037B 21343.70814690 .00000706 00000-0 31536-4 0 9997 2 20580 28.4714 345.3006 0002813 146.8297 16.2644 15.09871269537506 ISS (ZARYA) 1 25544U 98067A 21343.88482639 .00000143 00000-0 10791-4 0 9991 2 25544 51.6415 193.9729 0004414 287.4837 253.6360 15.48949833315824 CXO 1 25867U 99040B 21342.64417348 .00000505 00000-0 00000-0 0 9999 2 25867 50.6312 247.1844 8578782 228.3791 359.9328 0.37808223 11097 ____________________________________________________________________ These 2-Line ...Continue Reading

[list_settings.list_name] Current TLEs

December 9th 2021 PST

HST 1 20580U 90037B 21343.23148221 .00000745 00000-0 33925-4 0 9992 2 20580 28.4714 348.4555 0002840 142.1225 304.9064 15.09870908537691 ISS (ZARYA) 1 25544U 98067A 21343.41105832 .00001026 00000-0 26844-4 0 9994 2 25544 51.6429 196.3067 0004267 290.0753 127.4657 15.48949375315754 CXO 1 25867U 99040B 21342.64417348 .00000505 00000-0 00000-0 0 9999 2 25867 50.6312 247.1844 8578782 228.3791 359.9328 0.37808223 11097 ____________________________________________________________________ These 2-Line ...Continue Reading
  • This mailing list is a public mailing list - anyone may join or leave, at any time.
  • This mailing list is announce-only.

International Space Station (ISS) / Hubble Space Telescope (HST) / Chandra X-Ray Observatory Orbital Data via EMAIL

Privacy Policy:

Private list